Current weather by "City, St" or "zip code"  
 

Current Conditions: Pipestone Municipal Airport, MN

Light Snow


25.0 F

Last Updated on Oct 24 2020, 8:55 pm CDT
Humidity: 86%
Wind Speed: mph
Barometer 30.27 in
Dewpoint: 21.2 F
Visibility: 2.50 mi
Precip: --
Heat Index: NA
Wind Chill: NA
Current conditions at:

Pipestone Municipal Airport, MN (KPQN)

Lat: 43.98542 Lon: 96.29764

Local Radar Image active severe weather and emergency alerts image image weather storm and storm spotter reports image weather observation monitoring service image
Local
Radar
Active
Alerts
Storm Reports Obs
Monitoring

Sign-up For Email & Text Message Weather Alert Notification Services



Advertise Here

Observation History for Pipestone Municipal Airport, MN


Time Wind
(mph)
Vis
(mi)
Weather Precip (in) Temperature (F) Relative
Humidity
Wind
Chill
(F)
Heat
Index
(F)
Pressure
Air Dwpt altimeter
(in)
sea level
(mb)
Rmks
8:55 pm CDT 2.50 Light Snow -- 25.0 21.2 86% NA NA 30.27 M
7:55 pm CDT 4.00 Light Snow -- 25.0 21.2 86% NA NA 30.25 M
6:55 pm CDT 5.00 Light Snow -- 25.0 21.2 86% NA NA 30.24 M
5:55 pm CDT 10.00 NULL -- 25.0 21.2 86% NA NA 30.24 M
4:55 pm CDT 10.00 Light Snow -- 25.0 21.2 86% NA NA 30.24 M
3:55 pm CDT 2.00 Light Snow -- 25.0 21.2 86% NA NA 30.23 M
2:55 pm CDT 2.00 Light Snow -- 25.0 21.2 86% NA NA 30.24 M
1:55 pm CDT 10.00 NULL -- 25.0 19.4 80% NA NA 30.26 M
12:55 pm CDT 10.00 NULL -- 27.0 19.4 74% NA NA 30.29 M
11:55 am CDT 10.00 NULL -- 25.0 17.6 74% NA NA 30.29 M
10:55 am CDT 10.00 NULL -- 25.0 17.6 74% NA NA 30.30 M
9:55 am CDT 10.00 NULL -- 23.0 17.6 80% NA NA 30.30 M
8:55 am CDT 10.00 NULL -- 19.0 15.8 86% NA NA 30.30 M
7:55 am CDT 10.00 NULL -- 18.0 15.8 93% NA NA 30.30 M
6:55 am CDT 10.00 NULL -- 18.0 14.0 86% NA NA 30.32 M
5:55 am CDT 10.00 NULL -- 16.0 12.2 86% NA NA 30.32 M
4:55 am CDT 10.00 NULL -- 14.0 12.2 92% NA NA 30.33 M
3:55 am CDT 10.00 NULL -- 16.0 14.0 93% NA NA 30.33 M
2:55 am CDT 10.00 NULL -- 18.0 12.2 79% NA NA 30.33 M
1:55 am CDT 10.00 NULL -- 16.0 12.2 86% NA NA 30.32 M
12:55 am CDT 10.00 NULL -- 19.0 15.8 86% NA NA 30.34 M
11:55 pm CDT N 0.0 10.00 NULL -- NULL % NA NA 30.34 M
10:55 pm CDT N 0.0 10.00 NULL -- NULL % NA NA 30.37 M
9:55 pm CDT N 0.0 10.00 NULL -- 21.0 15.8 80% NA NA 30.37 M

Regional Weather Observation


Pipestone Municipal Airport, MN (KPQN)

Light Snow
25.0 F

Canby Airfield, MN (KCNB)

Overcast
27.0 F

Madison Municipal Airport, SD (KMDS)

Light Snow
23.0 F

Madison, Madison-Lac Qui Parle County Airport, MN (KDXX)

Mostly Cloudy
28.0 F

Quentin Aanenson Field Airport, MN (KLYV)

NULL
68.0 F

Sioux Falls, Foss Field, SD (KFSD)

Light Snow Fog/Mist
26.0 F